Location: Biltmore Gardens
(41.6070°N, 83.4666°W)
Time: 08:16:10
(UTC+00:00)

Altair - All Passes

Search period start: 20 April 2021 00:00
Search period end: 30 April 2021 00:00
Orbit: 1501 x 1683 km, 47.2° (Epoch: 19 April)

Date Brightness Start Highest point End Pass type
(mag) Time Alt. Az. Time Alt. Az. Time Alt. Az.
20 Apr - 08:51:43 10° S 08:58:54 23° SE 09:05:55 10° E visible
20 Apr - 10:52:38 10° SW 11:02:29 69° SE 11:11:59 10° ENE daylight
20 Apr - 12:57:42 10° W 13:07:30 68° NNW 13:16:54 10° ENE daylight
20 Apr - 15:03:36 10° WNW 15:13:11 68° NNE 15:22:25 10° E daylight
20 Apr - 17:08:46 10° WNW 17:18:04 68° SW 17:27:08 10° SE daylight
20 Apr - 19:15:03 10° W 19:21:24 21° SW 19:27:43 10° S daylight
21 Apr - 08:27:06 10° S 08:33:50 21° SE 08:40:25 10° E visible
21 Apr - 10:27:30 10° SW 10:37:19 65° SE 10:46:48 10° ENE daylight
21 Apr - 12:32:24 10° W 12:42:14 70° NNW 12:51:42 10° ENE daylight
21 Apr - 14:38:20 10° WNW 14:47:56 66° N 14:57:12 10° E daylight
21 Apr - 16:43:32 10° WNW 16:52:56 72° SSW 17:02:03 10° SE daylight
21 Apr - 18:49:35 10° W 18:56:23 23° SW 19:03:07 10° S daylight
22 Apr - 08:02:35 10° SSE 08:08:46 18° SE 08:14:51 10° E visible
22 Apr - 10:02:23 10° SW 10:12:09 61° SE 10:21:36 10° ENE visible
22 Apr - 12:07:05 10° W 12:16:59 72° NNW 12:26:30 10° ENE daylight
22 Apr - 14:13:03 10° WNW 14:22:42 65° N 14:31:58 10° E daylight
22 Apr - 16:18:19 10° WNW 16:27:47 76° SSW 16:36:58 10° SE daylight
22 Apr - 18:24:09 10° WNW 18:31:21 26° SW 18:38:27 10° S daylight
23 Apr - 07:38:10 10° SSE 07:43:43 16° SE 07:49:11 10° E visible
23 Apr - 09:37:18 10° SW 09:47:00 57° SE 09:56:23 10° ENE visible
23 Apr - 11:41:48 10° WSW 11:51:44 74° NNW 12:01:18 10° ENE daylight
23 Apr - 13:47:46 10° WNW 13:57:27 64° N 14:06:44 10° E daylight
23 Apr - 15:53:05 10° WNW 16:02:38 81° SSW 16:11:51 10° SE daylight
23 Apr - 17:58:45 10° WNW 18:06:18 29° SW 18:13:45 10° S daylight
24 Apr - 07:13:55 10° SSE 07:18:40 14° ESE 07:23:22 10° E visible
24 Apr - 09:12:14 10° SSW 09:21:51 53° SE 09:31:11 10° ENE visible
24 Apr - 11:16:31 10° WSW 11:26:30 76° NNW 11:36:07 10° ENE daylight
24 Apr - 13:22:28 10° WNW 13:32:10 63° N 13:41:30 10° E daylight
24 Apr - 15:27:51 10° WNW 15:37:28 85° SSW 15:46:43 10° ESE daylight
24 Apr - 17:33:24 10° WNW 17:41:16 31° SW 17:48:59 10° S daylight
25 Apr - 06:49:56 10° SE 06:53:38 13° ESE 06:57:18 10° E visible
25 Apr - 08:47:11 10° SSW 08:56:43 49° SE 09:05:58 10° ENE visible
25 Apr - 10:51:14 10° WSW 11:01:16 79° NNW 11:10:56 10° ENE daylight
25 Apr - 12:57:10 10° WNW 13:06:55 63° N 13:16:15 10° E daylight
25 Apr - 15:02:37 10° WNW 15:12:17 88° SSW 15:21:35 10° ESE daylight
25 Apr - 17:08:02 10° WNW 17:16:12 35° SW 17:24:11 10° SSE daylight
26 Apr - 06:26:35 10° SE 06:28:36 11° ESE 06:30:36 10° ESE visible
26 Apr - 08:22:11 10° SSW 08:31:35 46° SE 08:40:43 10° ENE visible
26 Apr - 10:25:58 10° WSW 10:36:02 82° NNW 10:45:44 10° ENE daylight
26 Apr - 12:31:52 10° W 12:41:39 63° N 12:51:02 10° E daylight
26 Apr - 14:37:23 10° WNW 14:47:06 88° NNE 14:56:25 10° ESE daylight
26 Apr - 16:42:43 10° WNW 16:51:08 38° SW 16:59:20 10° SSE daylight
27 Apr - 07:57:13 10° SSW 08:06:27 42° SE 08:15:28 10° ENE visible
27 Apr - 10:00:42 10° WSW 10:10:48 85° NNW 10:20:33 10° ENE visible
27 Apr - 12:06:34 10° W 12:16:22 63° N 12:25:48 10° E daylight
27 Apr - 14:12:09 10° WNW 14:21:54 84° NNE 14:31:15 10° ESE daylight
27 Apr - 16:17:25 10° WNW 16:26:04 41° SW 16:34:27 10° SSE daylight
28 Apr - 07:32:16 10° SSW 07:41:20 39° SE 07:50:12 10° ENE visible
28 Apr - 09:35:27 10° WSW 09:45:34 89° NNW 09:55:22 10° ENE visible
28 Apr - 11:41:15 10° W 11:51:06 63° N 12:00:34 10° E daylight
28 Apr - 13:46:54 10° WNW 13:56:42 81° NNE 14:06:05 10° ESE daylight
28 Apr - 15:52:08 10° WNW 16:00:59 45° SW 16:09:33 10° SSE daylight
29 Apr - 07:07:21 10° SSW 07:16:13 36° SE 07:24:54 10° ENE visible
29 Apr - 09:10:13 10° WSW 09:20:20 88° SSE 09:30:10 10° ENE visible
29 Apr - 11:15:56 10° W 11:25:49 63° N 11:35:20 10° ENE daylight
29 Apr - 13:21:39 10° WNW 13:31:29 78° NNE 13:40:53 10° ESE daylight
29 Apr - 15:26:51 10° WNW 15:35:53 48° SW 15:44:37 10° SSE daylight
29 Apr - 17:36:13 10° WSW 17:38:42 11° WSW 17:41:09 10° SW daylight
